Wind_Speed
27 25 24 24 22 21 21 20 20 20 20 20 21 23 24 25 26 27 28 29 30 31 32 33 34 35 35 36 37 37 38 39 39 39 38 38 37 36 36 35 35 35 35
28 26 26 25 23 22 21 21 21 21 21 22 23 24 25 26 27 28 29 30 31 32 33 34 35 35 36 37 37 38 39 39 39 39 38 37 36 36 36 35 35 35 34
28 27 27 26 24 23 23 22 22 22 23 23 24 25 27 28 28 29 30 31 32 33 34 35 35 36 37 37 38 38 39 39 38 38 38 37 37 36 36 35 35 35 35
29 28 28 27 25 24 24 23 23 24 24 25 26 27 28 29 29 30 31 32 33 34 35 35 36 37 37 38 38 39 39 39 38 38 38 38 37 37 36 36 37 37 37
30 29 28 27 26 25 25 25 25 25 26 26 27 28 29 30 30 31 32 33 34 34 35 36 37 37 38 38 39 39 39 39 38 38 38 38 38 38 37 37 38 38 38
30 30 29 28 27 26 26 26 26 27 27 27 28 29 30 30 31 32 32 34 34 35 36 37 37 38 38 39 39 40 39 39 39 39 39 39 39 39 39 39 39 39 40
31 30 29 28 27 27 27 27 27 28 28 28 29 30 30 30 31 32 33 34 35 36 37 37 38 38 39 39 40 40 40 39 39 39 39 40 40 40 41 41 41 41 41
31 31 30 29 28 28 28 28 28 28 29 29 30 31 31 31 32 33 34 35 35 36 37 38 38 39 39 40 40 40 40 40 40 40 41 41 41 42 42 43 43 43 44
32 31 30 30 30 29 29 29 29 30 30 31 31 31 32 32 33 34 35 35 36 37 37 38 38 39 40 40 40 40 41 41 41 41 42 43 43 44 44 45 45 46 46
33 32 31 31 31 31 31 31 31 31 31 31 32 32 33 33 34 34 35 36 36 37 38 38 39 39 40 40 40 41 42 42 42 42 43 45 45 46 47 48 48 49 49
34 33 33 33 32 32 32 32 31 32 32 32 32 33 33 34 35 35 35 36 37 37 38 38 39 39 40 41 41 42 43 43 43 44 45 47 48 49 51 51 52 53 53
35 34 34 34 33 33 33 32 32 32 33 33 34 34 34 35 35 35 36 36 37 38 38 39 39 40 41 42 42 43 44 44 45 46 47 49 51 52 53 55 56 56 56
34 34 34 34 34 34 34 33 33 33 33 34 35 35 35 36 36 36 37 37 38 38 38 39 40 41 41 42 43 44 45 46 46 48 50 52 53 55 57 58 58 58 58
35 35 35 35 35 34 34 33 33 33 34 35 35 35 36 36 36 37 37 38 38 38 38 39 40 41 42 43 44 45 46 47 49 51 53 55 57 59 60 60 59 59 59
36 36 36 35 35 34 34 34 34 34 35 35 36 36 36 36 37 37 38 38 38 38 39 39 40 41 42 43 45 46 47 49 51 53 56 57 59 61 61 60 60 59 59
36 36 36 36 36 35 35 35 35 36 36 36 36 36 36 36 37 38 38 38 39 39 39 40 41 42 43 44 46 47 49 51 53 56 58 60 61 61 60 60 60 60 60
36 35 35 35 36 36 36 36 36 36 36 36 36 36 36 37 37 38 38 39 39 39 40 40 42 42 43 45 47 49 51 53 55 58 60 62 62 62 61 62 61 60 60
37 37 36 36 36 36 36 36 36 36 36 36 36 37 37 37 37 37 38 39 39 40 41 41 42 43 44 46 48 50 52 55 57 60 62 63 62 62 62 62 61 62 62
38 37 37 37 36 36 36 36 36 36 36 36 37 36 36 37 37 37 38 38 39 41 41 42 42 44 45 47 49 51 54 57 60 62 63 63 63 62 62 62 62 62 62
40 39 38 38 37 37 37 36 36 36 36 36 37 36 36 36 37 38 37 37 39 40 41 42 43 45 47 49 51 53 56 59 61 62 63 63 62 62 63 63 63 62 62
41 40 40 40 39 38 37 36 37 36 36 37 36 35 35 36 36 37 37 37 39 40 41 43 44 46 48 50 52 55 57 60 61 62 62 62 62 63 63 63 62 61 60
42 42 41 40 39 38 37 37 36 37 36 36 35 35 35 35 36 37 37 37 38 40 42 43 45 47 49 52 54 57 58 60 61 61 61 61 62 62 61 60 59 59 58
43 41 40 39 39 38 37 36 36 35 35 35 34 35 35 36 36 36 36 37 39 41 42 44 46 48 51 53 56 58 59 61 61 61 60 60 61 61 59 58 57 57 56
42 41 40 39 39 38 37 36 35 35 34 34 34 34 34 35 36 36 37 38 40 42 43 45 48 50 52 55 57 59 60 60 60 60 60 60 60 58 57 56 56 55 54
41 40 39 39 38 37 36 35 34 34 34 34 34 34 34 35 35 36 37 39 41 42 44 46 49 51 54 56 58 58 58 58 58 59 60 59 58 56 55 54 54 53 52
40 39 38 37 36 35 34 33 33 33 33 34 33 33 33 34 35 36 38 39 41 43 45 47 50 52 54 57 58 58 57 57 58 58 58 57 56 55 54 53 52 51 50
Wind_Direction
234 238 242 244 247 250 254 260 267 272 278 284 290 294 298 301 304 307 310 311 313 314 315 316 316 317 317 317 317 317 317 316 316 315 314 314 312 310 309 308 306 305 305
235 238 241 243 246 249 254 260 267 274 279 284 289 294 297 300 303 306 308 310 312 313 314 315 316 316 316 317 317 317 317 316 315 315 314 314 312 311 310 309 307 306 306
235 239 240 243 245 249 255 261 268 275 280 284 288 293 297 300 302 305 307 309 311 312 313 314 315 315 316 317 317 316 316 316 315 315 314 313 312 311 310 309 308 307 306
236 239 241 243 245 250 256 262 269 276 280 283 288 292 296 299 301 303 306 308 310 311 312 313 314 315 315 316 316 316 315 315 314 314 313 312 311 311 310 309 308 307 306
237 239 241 243 246 251 258 264 270 276 279 283 287 291 295 297 300 303 304 307 308 310 311 312 313 314 315 315 316 315 314 314 313 313 312 311 311 310 310 309 308 307 306
237 239 241 243 248 253 259 265 271 275 279 283 287 291 294 296 299 302 304 306 307 309 311 311 312 313 314 315 315 314 314 313 313 312 311 310 310 310 309 309 308 307 305
236 239 242 244 249 254 260 265 271 275 279 283 286 290 293 296 299 301 303 304 306 308 309 310 311 312 313 313 314 313 313 313 312 311 311 310 310 309 309 308 307 306 305
237 240 243 246 250 255 261 266 271 274 278 282 286 289 292 295 298 300 302 303 305 307 308 309 310 311 312 312 312 313 312 311 311 311 310 310 309 308 308 308 307 306 305
238 241 244 247 252 257 261 266 272 275 278 282 285 288 291 294 297 299 301 303 304 306 307 308 309 310 311 311 311 311 311 310 310 310 309 309 309 308 307 307 306 305 304
239 242 245 249 253 258 262 267 272 275 278 281 284 287 290 293 296 298 300 302 304 305 306 307 308 309 310 310 310 310 310 310 310 309 309 309 308 308 307 306 305 304 303
240 243 247 250 254 257 262 268 272 275 278 280 283 287 290 293 295 296 299 301 303 304 305 306 307 308 308 309 309 309 310 310 309 309 309 309 308 307 307 306 305 304 302
241 244 247 251 254 258 262 267 272 275 276 279 283 286 289 292 294 295 298 300 302 303 304 305 306 307 307 308 308 309 310 310 309 309 309 309 308 307 307 306 304 303 302
242 245 247 251 255 258 262 267 272 274 276 278 282 286 289 290 293 295 297 299 301 302 303 304 305 306 307 307 308 309 309 309 309 309 309 308 308 307 307 306 305 304 303
243 245 248 251 255 258 262 267 270 272 274 278 282 285 288 290 292 294 297 298 299 301 302 303 304 305 306 307 307 308 308 308 309 309 309 309 309 308 307 307 305 304 303
244 247 250 252 254 257 262 266 269 271 274 278 282 285 288 289 292 294 296 298 299 300 301 302 303 304 305 305 306 308 308 309 309 310 310 310 309 309 309 308 307 305 304
245 248 251 253 254 258 262 266 269 271 274 278 281 284 287 289 291 293 296 297 298 299 300 302 303 304 305 305 307 308 308 309 310 310 310 310 310 310 309 308 307 306 306
245 249 252 254 256 258 262 265 268 270 274 277 281 284 286 288 291 293 295 297 297 299 301 302 303 305 305 306 307 308 309 310 311 311 311 310 310 309 308 308 308 307 307
247 250 252 254 256 258 261 264 266 270 274 276 280 283 285 287 290 292 294 295 296 298 300 301 303 305 306 307 307 308 309 310 310 311 312 311 310 309 309 309 309 308 308
247 249 252 254 256 259 261 263 267 270 273 276 279 282 284 287 289 292 294 295 296 298 300 301 304 305 306 307 308 309 309 310 311 312 312 311 310 309 309 310 310 309 308
246 248 251 254 256 259 261 264 266 270 274 276 279 281 283 286 289 291 293 294 295 297 300 302 303 305 306 308 308 309 310 311 312 313 312 311 311 310 310 310 310 310 310
244 247 250 252 256 259 261 264 267 270 273 276 278 280 283 286 288 290 292 294 295 297 300 302 304 306 307 308 309 310 311 312 313 314 313 313 312 311 310 311 311 311 311
243 246 248 251 254 257 260 263 267 270 272 275 278 281 283 286 288 290 291 293 294 298 300 302 305 306 307 309 310 311 312 313 313 314 314 313 313 312 312 312 312 312 312
243 244 247 250 253 255 258 261 266 269 271 274 278 281 283 285 288 290 291 292 295 299 301 303 305 307 308 310 311 312 313 314 314 315 315 314 314 314 314 314 313 314 314
242 244 246 249 251 254 257 261 264 268 271 274 277 280 283 286 288 288 290 294 297 300 303 304 306 309 310 312 313 313 314 315 315 316 316 316 315 315 315 315 315 316 315
240 242 245 248 251 254 256 260 264 267 270 274 277 280 283 286 288 289 292 296 299 302 304 306 308 311 312 313 314 315 315 316 316 317 317 317 316 316 316 316 317 317 317
239 241 244 247 250 253 256 260 263 266 270 273 277 280 283 286 288 291 294 298 301 303 306 308 310 312 314 315 315 315 316 316 317 317 318 318 317 316 316 317 318 318 318
Height
5833 5835 5837 5838 5840 5841 5841 5842 5842 5842 5842 5841 5840 5839 5837 5835 5833 5831 5828 5826 5823 5820 5816 5813 5809 5805 5801 5797 5792 5788 5784 5779 5775 5770 5766 5761 5757 5752 5748 5744 5740 5736 5733
5827 5830 5832 5833 5835 5836 5837 5837 5838 5838 5837 5837 5835 5834 5832 5830 5828 5826 5823 5820 5817 5814 5811 5807 5803 5799 5795 5791 5786 5782 5777 5773 5768 5763 5759 5755 5750 5746 5742 5738 5734 5730 5726
5822 5824 5827 5828 5830 5831 5832 5833 5833 5833 5832 5832 5831 5829 5827 5825 5823 5820 5818 5815 5812 5808 5805 5801 5797 5793 5789 5785 5780 5775 5771 5766 5761 5757 5753 5748 5744 5739 5735 5731 5727 5723 5719
5817 5819 5821 5823 5825 5826 5827 5828 5828 5828 5827 5826 5825 5824 5822 5820 5817 5815 5812 5809 5806 5803 5799 5795 5791 5787 5782 5778 5774 5769 5764 5760 5755 5750 5746 5741 5737 5733 5728 5724 5720 5716 5712
5811 5813 5816 5818 5819 5821 5822 5823 5823 5822 5822 5821 5820 5818 5816 5814 5812 5809 5806 5803 5800 5796 5793 5789 5784 5780 5776 5771 5767 5762 5758 5753 5748 5744 5739 5735 5730 5726 5722 5717 5713 5708 5704
5805 5808 5810 5812 5814 5815 5816 5817 5817 5817 5816 5815 5814 5812 5811 5808 5806 5803 5800 5797 5793 5790 5786 5782 5778 5773 5769 5765 5760 5755 5751 5746 5742 5737 5732 5728 5723 5719 5714 5710 5705 5701 5696
5799 5802 5804 5806 5808 5810 5810 5811 5811 5811 5810 5809 5808 5806 5804 5802 5800 5797 5794 5790 5787 5783 5779 5775 5771 5766 5762 5758 5753 5748 5744 5739 5734 5730 5725 5720 5716 5711 5706 5702 5697 5692 5688
5793 5796 5798 5800 5802 5803 5804 5805 5805 5804 5804 5803 5802 5800 5798 5796 5793 5790 5787 5784 5780 5776 5772 5768 5764 5760 5755 5751 5746 5741 5736 5732 5727 5722 5717 5712 5708 5703 5698 5693 5688 5683 5678
5786 5789 5792 5794 5795 5797 5798 5798 5798 5798 5797 5796 5795 5794 5791 5789 5787 5784 5780 5777 5773 5770 5765 5761 5757 5752 5748 5743 5739 5734 5729 5724 5719 5714 5709 5704 5699 5694 5689 5684 5679 5673 5668
5780 5783 5785 5787 5789 5790 5791 5791 5791 5791 5790 5789 5788 5786 5785 5782 5780 5777 5774 5770 5766 5762 5758 5754 5750 5745 5741 5736 5731 5726 5721 5716 5711 5706 5701 5696 5690 5685 5679 5674 5668 5663 5657
5773 5776 5778 5780 5782 5783 5784 5784 5784 5784 5783 5782 5781 5779 5777 5775 5773 5770 5767 5763 5759 5755 5751 5747 5742 5738 5733 5728 5723 5718 5713 5708 5703 5697 5692 5686 5681 5675 5669 5662 5656 5650 5644
5765 5768 5771 5773 5774 5776 5777 5777 5777 5776 5776 5775 5774 5772 5770 5768 5765 5763 5760 5756 5752 5748 5744 5739 5735 5730 5725 5720 5715 5710 5705 5699 5694 5688 5683 5676 5670 5664 5657 5650 5643 5636 5630
5758 5761 5763 5765 5767 5768 5769 5769 5769 5769 5768 5767 5766 5765 5763 5761 5758 5755 5752 5749 5745 5741 5736 5732 5727 5722 5717 5712 5707 5702 5696 5691 5685 5679 5672 5666 5659 5652 5644 5636 5629 5622 5615
5750 5753 5755 5757 5759 5760 5761 5762 5762 5761 5760 5760 5758 5757 5755 5753 5750 5748 5745 5741 5738 5734 5729 5724 5719 5714 5709 5704 5699 5693 5688 5682 5675 5669 5662 5655 5647 5639 5631 5622 5615 5607 5600
5742 5744 5747 5749 5751 5752 5753 5754 5754 5753 5753 5752 5751 5749 5747 5745 5742 5740 5737 5733 5730 5726 5722 5717 5712 5707 5701 5696 5691 5685 5679 5672 5665 5658 5650 5642 5634 5625 5616 5608 5600 5592 5585
5733 5736 5738 5740 5742 5744 5745 5745 5746 5745 5745 5744 5743 5741 5739 5737 5734 5731 5728 5725 5721 5717 5713 5709 5704 5699 5693 5688 5682 5676 5669 5662 5655 5647 5639 5630 5621 5612 5603 5594 5586 5578 5570
5725 5728 5730 5732 5734 5735 5736 5737 5737 5737 5737 5736 5735 5733 5731 5729 5726 5723 5720 5716 5713 5708 5704 5700 5695 5690 5684 5678 5672 5666 5659 5651 5643 5635 5626 5617 5607 5598 5589 5580 5572 5564 5556
5717 5719 5722 5724 5725 5727 5728 5729 5729 5729 5729 5728 5726 5725 5723 5720 5718 5715 5711 5708 5704 5700 5696 5692 5686 5681 5675 5669 5663 5656 5649 5641 5632 5623 5613 5603 5594 5584 5575 5566 5557 5549 5540
5708 5711 5713 5715 5717 5718 5719 5720 5721 5721 5720 5719 5718 5717 5715 5712 5710 5706 5703 5699 5695 5691 5687 5683 5678 5672 5666 5660 5653 5646 5638 5629 5620 5610 5600 5590 5580 5570 5561 5552 5543 5534 5525
5699 5702 5705 5707 5708 5710 5711 5712 5712 5712 5712 5711 5710 5708 5706 5704 5701 5698 5695 5691 5687 5683 5678 5673 5668 5663 5657 5650 5643 5635 5627 5617 5608 5597 5586 5576 5567 5557 5548 5538 5529 5520 5510
5690 5693 5696 5698 5699 5701 5702 5703 5704 5704 5703 5702 5701 5700 5698 5695 5693 5690 5686 5683 5679 5674 5669 5665 5659 5653 5647 5640 5632 5624 5615 5606 5595 5584 5574 5563 5554 5544 5534 5524 5515 5505 5496
5680 5684 5687 5689 5691 5692 5694 5695 5695 5695 5694 5694 5693 5691 5689 5687 5684 5681 5678 5674 5670 5666 5661 5656 5650 5644 5637 5629 5621 5612 5603 5595 5585 5575 5562 5552 5541 5531 5521 5511 5501 5492 5483
5671 5674 5677 5680 5682 5684 5685 5686 5686 5686 5686 5685 5684 5683 5681 5678 5676 5672 5669 5665 5661 5656 5652 5647 5640 5633 5626 5619 5611 5601 5590 5580 5570 5561 5550 5540 5529 5518 5508 5498 5488 5479 5470
5661 5665 5668 5671 5673 5675 5676 5677 5678 5678 5678 5677 5676 5674 5672 5670 5667 5664 5660 5656 5652 5647 5642 5637 5631 5623 5615 5607 5598 5588 5578 5568 5557 5547 5537 5528 5517 5507 5496 5486 5476 5467 5458
5652 5655 5659 5661 5664 5666 5668 5669 5669 5670 5669 5669 5668 5666 5664 5662 5659 5655 5652 5648 5644 5638 5632 5626 5620 5612 5604 5595 5585 5576 5566 5556 5546 5535 5525 5516 5506 5496 5487 5476 5465 5456 5447
5642 5646 5649 5652 5655 5657 5659 5660 5661 5661 5661 5660 5659 5658 5656 5653 5650 5647 5643 5639 5635 5629 5623 5617 5609 5601 5592 5583 5573 5564 5554 5544 5535 5525 5514 5504 5494 5485 5477 5467 5456 5446 5437